Regional Weather Roundup
Issued by NWS Newport/Morehead, NC

Current Version | Previous Version | Text Only | Print | Product List | Glossary Off
Versions: 1 2 3 4 5 6 7 8 9 10 11 12 13 14 15 16 17 18 19 20 21 22 23 24 25 26 27 28 29 30 31 32 33 34 35 36 37 38 39 40 41 42 43 44 45 46 47 48 49 50
000 ASUS42 KMHX 021528 RWRMHX WEATHER ROUNDUP FOR EASTERN NORTH CAROLINA NATIONAL WEATHER SERVICE NEWPORT/MOREHEAD CITY NC 1000 AM EST MON MAR 02 2015 NOTE: "FAIR" INDICATES FEW OR NO CLOUDS BELOW 12,000 FEET WITH NO SIGNIFICANT WEATHER AND/OR OBSTRUCTIONS TO VISIBILITY NCZ015>017-031-032-045>047-102-103-021600- NORTH COAST CITY SKY/WX TMP DP RH WIND PRES REMARKS EDENTON CLOUDY 42 42 99 W7 30.23R FOG ELIZABETH CITY CLOUDY 43 41 93 W10 30.20R KITTY HAWK FOG 41 41 100 W8 30.20R VSB 3/4 MANTEO CLOUDY 45 45 100 W12G17 30.22R $$ NCZ045>047-081-094-103-104-021600- CENTRAL COAST CITY SKY/WX TMP DP RH WIND PRES REMARKS FRISCO FOG 44 44 100 W7 30.21S VSB 3/4 SWANQUARTER N/A 46 N/A N/A W12 30.18S $$ NCZ095-097-098-100-101-021600- SOUTHERN COAST CITY SKY/WX TMP DP RH WIND PRES REMARKS BEAUFORT CLOUDY 46 46 100 SW10 30.24R FOG CEDAR ISLAND N/A 52 N/A N/A W3G13 30.24S JACKSONVILLE CLOUDY 48 46 93 W8 30.25R PINEY ISLAND N/A N/A N/A N/A MISG 30.22S WILMINGTON CLOUDY 50 48 93 W9 30.25S $$ NCZ011>013-027>030-043-044-078>080-089-090>093-098-021600- COASTAL PLAIN CITY SKY/WX TMP DP RH WIND PRES REMARKS AHOSKIE CLOUDY 40 40 98 W3 30.24R FOG CLINTON CLOUDY 46 46 100 W6 30.27R FOG ELIZABETHTOWN CLOUDY 47 47 100 W7 30.26R FOG GOLDSBORO CLOUDY 46 46 100 W9 30.23R GREENVILLE CLOUDY 45 43 93 NW3 30.25R HAVELOCK CLOUDY 49 47 93 W10 30.25R KENANSVILLE CLOUDY 46 46 98 W7 30.27R FOG KINSTON CLOUDY 46 46 100 W8 30.25R NEW BERN CLOUDY 49 46 90 W8 30.24R RICHLANDS CLOUDY 46 43 87 SW10 30.26R ROCKY MOUNT CLOUDY 44 43 96 W5 30.25R FOG WASHINGTON CLOUDY 46 43 92 NW7 30.24R FOG WHITEVILLE CLOUDY 48 47 97 W3 30.26R FOG $$ AMZ130-135-150-152-154-156-158-170-250-252-270-ANZ085-086-088-633-658-670-021600- MARINE OBSERVATIONS STATION/POSITION TIME TEMP WIND PRES WAVE SWELL AIR SEA DIR/SP/G HT/PER HT/PER (UTC) (F) (DEG/KT/KT) (MB) (FT/S) (FT/S) CHESAPEAKE LIGHT 1500 34 340/ 16/ 17 1024.0 64 E VA BEACH 1450 43 50 280/ 17/ 19 1021.5 5/ 7 3/ 7 DUCK 1500 40 34 250/ 14/ 16 1021.6 2 E DUCK 1411 N/A 3/ 6 10 NE DUCK 1422 37 N/A 3/ 8 OREGON INLET 1500 43 41 270/ 7/ 9 1022.8 HATTERAS CG 1500 46 42 230/ 6/ 10 1023.2 CAPE LOOKOUT 1500 47 270/ 12/ 15 1023.7 BEAUFORT LAB 1500 45 43 250/ 7/ 11 1022.9 27 SE WRIGHTSVLE NOT AVBL 5 SE WRIGHTSVLE NOT AVBL 225 S CAPE HAT 1450 70 73 240/ 12/ 14 1025.4 5/ 9 5/ 9 41 SE CHARLESTON 1450 61 68 270/ 14/ 17 1025.6 4/ 9 3/ 9 $$

USA.gov is the U.S. government's official web portal to all federal, state and local government web resources and services.